GW5238 Weather Reports


time (UTC)temp
C
wind
direction
speed
KPH
gust
KPH
rain 1hr
cm
rain 24hr
cm
rain mn
cm
humidity
%
barometer
mb
20260504150906 17 358 4.8 4.8 0.00 0.00 0.00 43 1013.5
20260504150358 17 202 6.4 11.3 0.00 0.00 0.00 39 1013.4
20260504140749 17 256 4.8 11.3 0.00 0.00 0.00 38 1013.6
20260504140241 17 227 3.2 4.8 0.00 0.00 0.00 38 1013.5
20260504130119 14 241 3.2 3.2 0.00 0.00 0.00 43 1014.3
20260504110605 9 266 1.6 3.2 0.00 0.00 0.00 57 1014.6
20260504100221 7 249 1.6 3.2 0.00 0.00 0.00 63 1014.4
20260504082005 6 247 0.0 0.0 0.00 0.00 0.00 67 1013.9
20260504081457 6 252 0.0 0.0 0.00 0.00 0.00 67 1013.9
20260504080949 6 257 0.0 0.0 0.00 0.00 0.00 65 1013.7
20260504080444 6 261 0.0 0.0 0.00 0.00 0.00 65 1014.0
20260504070323 8 257 0.0 1.6 0.00 0.00 0.00 55 1013.6
20260504060205 8 255 1.6 1.6 0.00 0.00 0.00 57 1013.3
20260504050549 6 259 0.0 0.0 0.00 0.00 0.00 65 1013.3
20260504045536 6 272 0.0 0.0 0.00 0.00 0.00 64 1013.3
20260504045031 6 269 0.0 0.0 0.00 0.00 0.00 63 1013.2
20260504044522 6 256 0.0 0.0 0.00 0.00 0.00 63 1013.5
20260504044017 6 256 0.0 0.0 0.00 0.00 0.00 63 1013.4
20260504043510 6 257 0.0 0.0 0.00 0.00 0.00 64 1013.6
20260504042717 6 258 0.0 0.0 0.00 0.00 0.00 59 1013.5
20260504041949 6 257 0.0 0.0 0.00 0.00 0.00 61 1013.5
20260504041444 6 257 0.0 0.0 0.00 0.00 0.00 63 1013.5
20260504041155 7 262 0.0 0.0 0.00 0.00 0.00 58 1013.3
20260504040431 7 263 0.0 0.0 0.00 0.00 0.00 61 1013.3
20260504035923 7 266 0.0 0.0 0.00 0.00 0.00 60 1013.4
20260504035418 7 265 0.0 0.0 0.00 0.00 0.00 60 1013.6
20260504034910 7 260 0.0 0.0 0.00 0.00 0.00 60 1013.4
20260504034405 7 260 0.0 0.0 0.00 0.00 0.00 61 1013.4
20260504033857 7 263 0.0 0.0 0.00 0.00 0.00 60 1013.3
20260504033349 7 264 0.0 0.0 0.00 0.00 0.00 60 1013.4
20260504032844 7 253 0.0 0.0 0.00 0.00 0.00 60 1013.2
20260504032554 7 257 0.0 0.0 0.00 0.00 0.00 60 1013.2
20260504032051 7 257 0.0 0.0 0.00 0.00 0.00 59 1013.1
20260504031544 7 257 0.0 0.0 0.00 0.00 0.00 57 1013.3
20260504030818 7 257 0.0 0.0 0.00 0.00 0.00 57 1013.0
20260504030305 8 252 0.0 1.6 0.00 0.00 0.00 54 1013.2
20260504025759 7 249 0.0 3.2 0.00 0.00 0.00 55 1013.2
20260504025251 8 252 0.0 1.6 0.00 0.00 0.00 55 1013.1
20260504024746 7 254 0.0 1.6 0.00 0.00 0.00 55 1013.1
20260504024238 7 251 1.6 1.6 0.00 0.00 0.00 55 1013.2
20260504023733 7 252 0.0 0.0 0.00 0.00 0.00 55 1013.4
20260504023225 7 266 0.0 0.0 0.00 0.00 0.00 57 1013.3
20260504022716 7 269 0.0 0.0 0.00 0.00 0.00 55 1013.2
20260504022212 7 263 0.0 0.0 0.00 0.00 0.00 57 1013.4
20260504021704 7 264 0.0 0.0 0.00 0.00 0.00 53 1013.3
20260504021158 7 263 0.0 0.0 0.00 0.00 0.00 55 1013.3
20260504020651 7 264 0.0 0.0 0.00 0.00 0.00 52 1013.3
20260504020145 7 263 0.0 0.0 0.00 0.00 0.00 53 1013.2
20260504015638 7 263 0.0 0.0 0.00 0.00 0.00 52 1013.1
20260504015133 8 263 0.0 0.0 0.00 0.00 0.00 54 1013.3
20260504014625 8 263 0.0 0.0 0.00 0.00 0.00 50 1013.2
20260504014117 8 263 0.0 0.0 0.00 0.00 0.00 48 1013.3
20260504013612 8 263 0.0 0.0 0.00 0.00 0.00 51 1013.0
20260504013324 8 263 0.0 0.0 0.00 0.00 0.00 52 1013.1
20260504012559 8 263 0.0 0.0 0.00 0.00 0.00 50 1012.8
20260504012055 8 263 0.0 0.0 0.00 0.00 0.00 49 1013.2
20260504011547 8 263 0.0 0.0 0.00 0.00 0.00 47 1013.1
20260504011041 8 264 0.0 0.0 0.00 0.00 0.00 45 1012.9
20260504010533 8 244 0.0 0.0 0.00 0.00 0.00 47 1012.7
20260504010029 9 241 0.0 0.0 0.00 0.00 0.00 49 1012.7
20260504005521 9 244 0.0 0.0 0.00 0.00 0.00 49 1012.6
20260504005012 9 244 0.0 0.0 0.00 0.00 0.00 49 1012.3
20260504004727 10 244 0.0 0.0 0.00 0.00 0.00 50 1012.4
20260504004000 10 244 0.0 0.0 0.00 0.00 0.00 49 1012.2
20260504003455 10 244 0.0 0.0 0.00 0.00 0.00 47 1012.2
20260504002947 10 244 0.0 0.0 0.00 0.00 0.00 46 1012.3
20260504002442 10 244 0.0 0.0 0.00 0.00 0.00 44 1012.0
20260504001934 10 243 0.0 0.0 0.00 0.00 0.00 45 1012.0
20260504001429 10 244 0.0 0.0 0.00 0.00 0.00 44 1012.1
20260504000921 10 244 0.0 0.0 0.00 0.00 0.00 41 1012.0
20260504000413 10 244 0.0 0.0 0.00 0.00 0.00 43 1011.9
20260503235907 11 245 0.0 0.0 0.00 0.00 0.00 42 1011.6
20260503235354 11 244 0.0 0.0 0.00 0.00 0.00 40 1011.8
20260503234849 11 279 0.0 0.0 0.00 0.00 0.00 37 1011.6
20260503234341 11 266 0.0 0.0 0.00 0.00 0.00 36 1011.4
20260503233836 12 269 0.0 3.2 0.00 0.00 0.00 32 1011.3
20260503233320 12 262 0.0 1.6 0.00 0.00 0.00 32 1011.2
20260503232813 12 246 0.0 0.0 0.00 0.00 0.00 31 1011.4
20260503232301 12 285 0.0 3.2 0.00 0.00 0.00 30 1011.1
20260503231753 12 293 1.6 3.2 0.00 0.00 0.00 31 1011.3
20260503231245 12 349 3.2 4.8 0.00 0.00 0.00 30 1011.3
20260503230740 13 281 0.0 1.6 0.00 0.00 0.00 31 1011.0
20260503230232 13 343 3.2 4.8 0.00 0.00 0.00 29 1011.1
20260503225727 13 202 1.6 4.8 0.00 0.00 0.00 29 1011.0
20260503225219 13 298 0.0 3.2 0.00 0.00 0.00 30 1010.7
20260503224714 13 305 3.2 14.5 0.00 0.00 0.00 29 1011.1
20260503224652 13 240 1.6 4.8 0.00 0.00 0.00 31 1010.8
20260503223701 13 237 4.8 4.8 0.00 0.00 0.00 30 1010.8
20260503223152 13 301 3.2 9.7 0.00 0.00 0.00 30 1010.7
20260503222644 13 268 1.6 6.4 0.00 0.00 0.00 33 1010.8
20260503222133 13 350 6.4 20.9 0.00 0.00 0.00 29 1010.7
20260503221628 13 292 4.8 6.4 0.00 0.00 0.00 29 1010.7
20260503221343 13 257 4.8 11.3 0.00 0.00 0.00 29 1010.6
20260503220613 13 276 0.0 9.7 0.00 0.00 0.00 32 1010.8
20260503220108 13 303 6.4 12.9 0.00 0.00 0.00 29 1010.6
20260503215600 13 306 3.2 12.9 0.00 0.00 0.00 31 1010.6
20260503215055 13 273 1.6 3.2 0.00 0.00 0.00 32 1010.8
20260503214547 13 241 4.8 6.4 0.00 0.00 0.00 32 1011.1
20260503214042 13 270 0.0 16.1 0.00 0.00 0.00 32 1010.7
20260503213534 13 279 4.8 6.4 0.00 0.00 0.00 32 1011.0
20260503213029 13 346 4.8 4.8 0.00 0.00 0.00 33 1010.7
20260503212520 13 324 3.2 6.4 0.00 0.00 0.00 31 1010.7
20260503212012 13 273 1.6 14.5 0.00 0.00 0.00 33 1010.8
20260503211728 13 273 0.0 14.5 0.00 0.00 0.00 34 1010.8
20260503210959 13 343 4.8 9.7 0.00 0.00 0.00 34 1010.7
20260503210714 13 272 3.2 4.8 0.00 0.00 0.00 35 1010.6
20260503210206 13 344 4.8 11.3 0.00 0.00 0.00 33 1010.9
20260503205441 13 323 8.0 12.9 0.00 0.00 0.00 33 1010.7
20260503204928 12 301 4.8 4.8 0.00 0.00 0.00 33 1010.6
20260503204423 12 355 4.8 17.7 0.00 0.00 0.00 35 1010.8
20260503203915 12 261 4.8 9.7 0.00 0.00 0.00 35 1010.8
20260503203410 12 2 4.8 12.9 0.00 0.00 0.00 35 1010.9
20260503203123 12 19 8.0 9.7 0.00 0.00 0.00 34 1010.8
20260503202616 12 247 3.2 4.8 0.00 0.00 0.00 36 1010.8
20260503201849 12 0 6.4 9.7 0.00 0.00 0.00 35 1010.8
20260503201340 12 261 3.2 12.9 0.00 0.00 0.00 36 1010.9
20260503200836 13 341 3.2 4.8 0.00 0.00 0.00 35 1010.6
20260503200327 13 293 1.6 6.4 0.00 0.00 0.00 36 1010.9
20260503200044 12 274 3.2 4.8 0.00 0.00 0.00 36 1010.9
20260503195314 12 303 9.7 22.5 0.00 0.00 0.00 34 1010.8
20260503194805 12 236 1.6 6.4 0.00 0.00 0.00 36 1010.8
20260503194522 11 290 6.4 9.7 0.00 0.00 0.00 36 1010.9
20260503193752 12 330 4.8 16.1 0.00 0.00 0.00 36 1010.8
20260503193247 12 249 0.0 14.5 0.00 0.00 0.00 37 1011.0
20260503192732 12 335 3.2 6.4 0.00 0.00 0.00 36 1011.0
20260503192228 12 352 6.4 9.7 0.00 0.00 0.00 35 1011.1
20260503191720 11 275 3.2 14.5 0.00 0.00 0.00 37 1011.2
20260503191215 11 356 19.3 24.1 0.00 0.00 0.00 36 1011.2
20260503190707 12 316 6.4 9.7 0.00 0.00 0.00 36 1011.1
20260503190201 12 152 4.8 9.7 0.00 0.00 0.00 36 1011.0
20260503185653 12 268 11.3 20.9 0.00 0.00 0.00 35 1011.3
20260503185148 12 243 3.2 9.7 0.00 0.00 0.00 34 1011.1
20260503184641 12 349 14.5 20.9 0.00 0.00 0.00 35 1011.0
20260503184352 12 292 6.4 16.1 0.00 0.00 0.00 37 1011.0
20260503183627 12 272 3.2 9.7 0.00 0.00 0.00 37 1011.1
20260503183342 12 244 1.6 14.5 0.00 0.00 0.00 37 1011.2
20260503182615 12 255 3.2 11.3 0.00 0.00 0.00 36 1010.9
20260503182111 11 270 1.6 9.7 0.00 0.00 0.00 36 1011.0
20260503181603 12 21 3.2 12.9 0.00 0.00 0.00 34 1011.1
20260503181058 12 298 6.4 22.5 0.00 0.00 0.00 33 1011.1
20260503180550 12 334 4.8 9.7 0.00 0.00 0.00 34 1011.1
20260503180307 12 190 9.7 17.7 0.00 0.00 0.00 35 1011.3
20260503175537 12 279 9.7 14.5 0.00 0.00 0.00 34 1010.9
20260503175029 12 338 1.6 12.9 0.00 0.00 0.00 35 1010.9
20260503174524 11 316 8.0 24.1 0.00 0.00 0.00 34 1010.9
20260503174016 12 282 6.4 12.9 0.00 0.00 0.00 35 1011.0
20260503173511 11 308 4.8 6.4 0.00 0.00 0.00 35 1011.1
20260503173003 12 348 6.4 9.7 0.00 0.00 0.00 36 1010.9
20260503172458 11 212 3.2 6.4 0.00 0.00 0.00 36 1010.9
20260503171953 12 311 1.6 3.2 0.00 0.00 0.00 35 1011.1
20260503171445 11 268 3.2 9.7 0.00 0.00 0.00 37 1011.2
20260503170940 11 328 9.7 25.7 0.00 0.00 0.00 36 1011.3
20260503170432 11 352 6.4 14.5 0.00 0.00 0.00 35 1011.2